Flag for France Weather past 2 weeks in Lille, France

Now
39 °F

Sunny.


Feels Like: 34 °F
Forecast: 36 / 52 °F
Wind: 8 mph from West

Location: Lille Airport

Current Time: Mar 27, 2015 at 8:42:37 AM

Latest Report: Mar 27, 2015 at 8:00 AM


Visibility: 10 mi

Pressure: 30.09 "Hg

Humidity: 81%

Dew point: 34 °F

Location of LilleLocation

Historic Weather in Lille — Graph

°F

Lille temperature yesterday

Maximum temperature yesterday: 48 °F (at 6:00 PM)
Minimum temperature yesterday: 30 °F (at 3:30 AM)
Average temperature yesterday: 39 °F

Past Weeks' High & Low Weather Summary

 TemperatureHumidityPressure
High63 °F (Mar 17, 3:30 PM)100% (Mar 15, 12:30 AM)30.42 "Hg (Mar 15, 12:30 AM)
Low30 °F (Mar 23, 3:00 AM)29% (Mar 12, 3:00 PM)29.65 "Hg (Mar 26, 1:30 PM)
Average43 °F80%30.14 "Hg
* Reported Mar 12 7:00 AM — Mar 27 7:30 AM, Lille, Weather by CustomWeather, © 2015

Note: Actual official high and low records may vary slightly from our data, if they occured in-between our weather recording intervals... More about our weather records

Advertising

Lille weather history for previous 24 hours

 ConditionsComfort  
Time TempWeatherWind HumidityBarometerVisibility
7:30 AM
Fri, Mar 27
36 °FSunny.6 mph93%30.07 "Hg10 mi
7:00 AM36 °FSunny.6 mph87%30.04 "Hg10 mi
6:30 AM36 °FClear.7 mph87%30.04 "Hg10 mi
6:00 AM36 °FClear.6 mph87%30.01 "Hg10 mi
5:30 AM36 °FClear.6 mph87%30.01 "Hg10 mi
5:00 AM37 °FClear.7 mph81%30.01 "Hg10 mi
3:30 AM39 °FClear.10 mph81%29.98 "HgN/A
3:00 AM41 °FClear.14 mph76%29.95 "HgN/A
2:30 AM41 °FClear.10 mph70%29.95 "HgN/A
2:00 AM41 °FClear.13 mph70%29.95 "HgN/A
1:30 AM41 °FClear.10 mph70%29.95 "HgN/A
1:00 AM41 °FClear.9 mph70%29.92 "Hg10 mi
12:30 AM41 °FClear.10 mph76%29.92 "HgN/A
12:00 AM41 °FClear.8 mph76%29.89 "Hg10 mi
11:30 PM
Thu, Mar 26
41 °FClear.9 mph81%29.89 "HgN/A
11:00 PM41 °FClear.6 mph87%29.86 "Hg10 mi
10:00 PM41 °FClear.7 mph93%29.86 "Hg10 mi
9:30 PM43 °FClear.7 mph93%29.83 "Hg10 mi
9:00 PM41 °FClear.6 mph93%29.83 "Hg10 mi
8:30 PM43 °FClear.8 mph87%29.80 "Hg10 mi
8:00 PM45 °FClear.7 mph87%29.77 "Hg10 mi
7:30 PM46 °FClear.8 mph87%29.77 "Hg10 mi
7:00 PM46 °FBroken clouds.12 mph93%29.74 "HgN/A
6:30 PM46 °FLight rain. Partly sunny.5 mph100%29.71 "HgN/A
6:00 PM48 °FPartly sunny.6 mph87%29.71 "HgN/A
5:30 PM46 °FBroken clouds.8 mph93%29.68 "HgN/A
5:00 PM46 °FPartly sunny.13 mph93%29.68 "HgN/A
4:30 PM45 °FPartly sunny.14 mph100%29.65 "HgN/A
4:00 PM45 °FPartly sunny.17 mph93%29.65 "HgN/A
3:30 PM43 °FPartly sunny.14 mph100%29.65 "HgN/A
3:00 PM43 °FPartly sunny.15 mph100%29.65 "HgN/A
2:30 PM43 °FLight rain. Partly sunny.20 mph93%29.65 "Hg4 mi
2:00 PM43 °FLight rain. Partly sunny.18 mph93%29.65 "Hg2 mi
1:30 PM43 °FLight rain. Mostly cloudy.20 mph87%29.65 "Hg3 mi
1:00 PM43 °FLight rain. Mostly cloudy.23 mph87%29.68 "Hg4 mi
12:37 PM41 °FLight rain. More clouds than sun.23 mph87%29.68 "Hg4 mi
12:00 PM43 °FLight rain. More clouds than sun.20 mph81%29.68 "HgN/A
11:30 AM43 °FLight rain. Partly sunny.18 mph76%29.71 "HgN/A
11:00 AM43 °FLight rain. Partly sunny.17 mph76%29.71 "HgN/A
10:30 AM41 °FSunny.16 mph81%29.71 "Hg10 mi
9:30 AM39 °FSunny.15 mph87%29.74 "Hg10 mi
9:00 AM37 °FClear.13 mph93%29.77 "Hg6 mi
8:30 AM36 °FClear.9 mph93%29.77 "Hg4 mi
8:00 AM34 °FClear.9 mph100%29.77 "Hg4 mi
Weather by CustomWeather, © 2015

See weather overviewHow to use our weather pages